[[{"header":{"parameterUnit":"m.s-1","parameterCategory":1,"la1":30.2991,"la2":30.254,"lo1":-89.0895,"lo2":-89.0444,"dy":0.0017,"dx":0.0017,"nx":28,"ny":28,"refTime":"2024-08-14T21:00:00:Z","depth":0,"parameterNumber":2,"parameterNumberName":"U-component_of_WINDS"},"data":[0,0,0,0,0,0,0,0,0,0,0,0,0,0,0,0,0,0,0,0,0,0,0,0,0,0,0,0,0,0,0,0,0,0,0,0,0,0,0,0,0,0,0,0,0,0,0,0,0,0,0,0,0,0,0,0,0,0,0.9135,0.9135,0,0.914,0.914,0.914,0.9053,0.9051,0.9048,0.9046,0.9068,0.9071,0.9073,0,0,0,0,0,0,0,0,0,0,0,0,0,0.9062,0.9063,0.9135,0.9135,0.9135,0.914,0.914,0.914,0.9054,0.9051,0.9048,0.9045,0.9067,0.907,0.9074,0,0,0,0,0,0,0,0,0,0,0,0,0,0.9083,0.9064,0.9135,0.9092,0.9088,0.914,0.914,0.914,0.9054,0.9051,0.9047,0.9044,0.9066,0.907,0.9074,0.9172,0,0,0.9087,0.9089,0,0,0,0,0,0,0,0,0.9082,0.9086,0.9098,0.9095,0.9091,0.9092,0.9122,0.9152,0.9055,0.9068,0.9046,0.9042,0.908,0.9083,0.9092,0.9173,0.9174,0.9087,0.909,0.9092,0.9093,0,0,0,0,0,0,0,0.9081,0.9086,0.9137,0.9098,0.9094,0.9076,0.9075,0.9127,0.9095,0.9066,0.906,0.9061,0.9077,0.9088,0.9092,0.9175,0.9087,0.9091,0.9094,0.9095,0.9335,0.9339,0,0,0,0,0,0,0.9083,0.9085,0.9137,0.9137,0.9077,0.9081,0.908,0.9096,0.9093,0.9089,0.9064,0.9057,0.9083,0.9087,0.9093,0.9206,0.9092,0.9096,0.9098,0.9331,0.9336,0.934,0,0,0,0,0,0,0.9082,0.9089,0.9137,0.9109,0.9114,0.9086,0.9104,0.9098,0.9108,0.9091,0.9087,0.908,0.908,0.9087,0.9151,0.9205,0.9098,0.9101,0.9327,0.9333,0.9338,0.9434,0,0,0,0,0,0,0.908,0.9089,0.9123,0.911,0.9116,0.9192,0.9108,0.91,0.9114,0.9104,0.9106,0.9103,0.9078,0.9146,0.9156,0.9209,0.9105,0.9322,0.9329,0.9336,0.9426,0.9442,0.9456,0,0,0,0,0,0.9078,0.9154,0.9125,0.9132,0.9157,0.9195,0.9199,0.9164,0.9118,0.9154,0.9143,0.9103,0.9197,0.9153,0.9164,0.9219,0.9318,0.9327,0.9336,0.9419,0.9439,0.9456,0,0,0,0,0,0,0.9179,0.9151,0.9119,0.9192,0.9196,0.918,0.9225,0.9187,0.9208,0.9199,0.916,0.9161,0.9233,0.9233,0.9184,0.9313,0.9251,0.9262,0.931,0.9329,0.9344,0.9343,0.9108,0,0,0,0,0,0.9209,0.9238,0.9214,0.9281,0.9284,0.9254,0.927,0.9242,0.9246,0.9249,0.9243,0.9253,0.9285,0.9307,0.9336,0.9425,0.9425,0.9469,0.9484,0.9496,0.9507,0.9553,0.9572,0.9368,0.9368,0.9368,0,0,0.9273,0.9261,0.9283,0.9301,0.93,0.9335,0.9256,0.9297,0.9323,0.9257,0.9316,0.9312,0.9321,0.9398,0.9432,0.94,0.9563,0.9507,0.9518,0.9521,0.9564,0.9583,0.9601,0.9374,0.9373,0.9372,0,0,0.9406,0.94,0.9453,0.9453,0.9451,0.9431,0.9444,0.9433,0.9426,0.9483,0.9434,0.9467,0.9523,0.953,0.9541,0.9674,0.9638,0.9685,0.9765,0.9811,0.9827,0.9841,0.9888,0.9905,0.9696,0.9696,0.9696,0,0.9487,0.9532,0.9488,0.9529,0.9539,0.9475,0.9531,0.9535,0.9545,0.9555,0.9518,0.9584,0.9586,0.9663,0.9695,0.9706,0.9722,0.9685,0.9827,0.9841,0.9853,0.9898,0.9916,0.9702,0.9701,0.97,0.97,0,0.9631,0.9663,0.9708,0.9712,0.9728,0.9777,0.9743,0.9764,0.9735,0.9719,0.9779,0.9778,0.9804,0.982,0.9795,0.9894,0.9874,0.9833,0.9769,0.9879,0.992,0.9937,0.971,0.9708,0.9706,0.9705,0,0,0.9829,0.9806,0.9823,0.9823,0.9816,0.9842,0.989,0.9909,0.9928,0.9938,0.9977,1.0024,0.9984,0.9997,0.9972,1.0012,1.0116,0.9966,0.9965,0.9993,1.0224,1.0255,1.0275,1.0091,1.0094,1.0096,1.0223,0,0.9957,1.0031,0.9992,1.0073,1.0103,1.0041,1.0083,1.0084,1.0071,1.0097,1.0084,1.0117,1.0063,1.0069,1.0106,1.0095,1.0162,1.0086,1.013,1.0132,1.0129,1.0296,1.033,1.0449,1.0239,1.0242,1.0244,0,1.0117,1.0126,1.0209,1.0193,1.0204,1.0241,1.0255,1.028,1.0282,1.0269,1.0281,1.0246,1.0295,1.023,1.0297,1.0246,1.0262,1.0259,1.0263,1.0267,1.0195,1.0305,1.0487,1.0505,1.0269,1.0267,1.0265,0,1.0252,1.0286,1.0339,1.0342,1.0326,1.0353,1.0349,1.0346,1.036,1.0374,1.0382,1.0404,1.0416,1.0435,1.0408,1.0364,1.0479,1.0413,1.0472,1.0473,1.05,1.0499,1.0687,1.0511,1.051,1.051,1.051,0,1.0399,1.0452,1.0399,1.0432,1.049,1.0445,1.0505,1.0495,1.0492,1.0524,1.0475,1.0507,1.0468,1.0498,1.0477,1.0535,1.0542,1.0535,1.0529,1.0539,1.054,1.055,1.0541,1.0515,1.0514,1.0513,1.0512,0,1.056,1.0526,1.058,1.0558,1.0555,1.0598,1.0582,1.0613,1.0594,1.0635,1.0643,1.0615,1.0647,1.062,1.0653,1.0639,1.0716,1.0699,1.0714,1.0709,1.0769,1.0764,1.0971,1.0996,1.0803,1.0805,1.0807,0,1.0656,1.0694,1.0675,1.069,1.0687,1.0713,1.0725,1.0684,1.07,1.0702,1.0734,1.076,1.0778,1.0832,1.0818,1.0842,1.0825,1.0896,1.0829,1.0837,1.0826,1.0823,1.0827,1.091,1.0912,1.0914,1.0915,0,1.0829,1.0809,1.0827,1.0838,1.0853,1.0861,1.0866,1.0882,1.084,1.086,1.0888,1.0903,1.0932,1.0959,1.0978,1.0978,1.0941,1.0936,1.0951,1.0962,1.0969,1.0965,1.075,1.0932,1.093,1.0929,1.0928,1.0928,1.0959,1.099,1.098,1.1001,1.0999,1.1004,1.1031,1.1014,1.1036,1.1053,1.1029,1.1064,1.1065,1.1084,1.1088,1.1117,1.1089,1.1111,1.1116,1.1122,1.113,1.0963,1.1121,1.1121,1.112,1.112,1.1119,0,1.1129,1.1119,1.1138,1.1144,1.1161,1.1119,1.1122,1.114,1.117,1.1171,1.1188,1.1221,1.1247,1.1233,1.1255,1.1281,1.1265,1.1289,1.1287,1.1287,1.1155,1.114,1.1301,1.1301,1.1301,1.1301,1.1301,1.1301,1.1219,1.1268,1.1248,1.1296,1.1286,1.1317,1.1322,1.1327,1.1327,1.1364,1.1383,1.1372,1.1368,1.1389,1.1411,1.1406,1.1417,1.1447,1.1437,1.1315,1.1297,1.128,1.1264,1.145,1.145,1.1566,1.1567,1.1568]},{"header":{"parameterUnit":"m.s-1","parameterCategory":1,"la1":30.2991,"la2":30.254,"lo1":-89.0895,"lo2":-89.0444,"dy":0.0017,"dx":0.0017,"nx":28,"ny":28,"refTime":"2024-08-14T21:00:00:Z","depth":0,"parameterNumber":3,"parameterNumberName":"V-component_of_WINDS"},"data":[0,0,0,0,0,0,0,0,0,0,0,0,0,0,0,0,0,0,0,0,0,0,0,0,0,0,0,0,0,0,0,0,0,0,0,0,0,0,0,0,0,0,0,0,0,0,0,0,0,0,0,0,0,0,0,0,0,0,3.5739,3.5737,0,3.5573,3.5571,3.557,3.5411,3.5409,3.5407,3.5405,3.5232,3.5229,3.5227,0,0,0,0,0,0,0,0,0,0,0,0,0,3.5913,3.5911,3.5739,3.5737,3.5735,3.5574,3.5571,3.5569,3.5412,3.5409,3.5407,3.5405,3.5233,3.523,3.5226,0,0,0,0,0,0,0,0,0,0,0,0,0,3.5802,3.591,3.5739,3.5637,3.5626,3.5574,3.5571,3.5569,3.5412,3.5409,3.5406,3.5403,3.5234,3.523,3.5226,3.5261,0,0,3.5213,3.5212,0,0,0,0,0,0,0,0,3.5808,3.5796,3.5654,3.5644,3.5632,3.551,3.5569,3.5465,3.5413,3.5493,3.5405,3.5402,3.5327,3.5315,3.529,3.5252,3.5245,3.5213,3.521,3.5209,3.5208,0,0,0,0,0,0,0,3.5816,3.5802,3.5673,3.5652,3.5639,3.5597,3.5578,3.5549,3.5429,3.5486,3.5474,3.5457,3.532,3.5295,3.5285,3.5242,3.5213,3.5209,3.5207,3.5205,3.5223,3.5226,0,0,0,0,0,0,3.584,3.5809,3.5679,3.5668,3.5715,3.5597,3.5575,3.5552,3.5429,3.5407,3.546,3.545,3.5303,3.529,3.5278,3.5311,3.5209,3.5205,3.5203,3.522,3.5224,3.5227,0,0,0,0,0,0,3.5845,3.583,3.5685,3.5735,3.5714,3.5597,3.5572,3.555,3.5525,3.5409,3.5386,3.5456,3.53,3.5284,3.5266,3.5303,3.5203,3.5199,3.5217,3.5221,3.5225,3.5377,0,0,0,0,0,0,3.585,3.5833,3.5846,3.5737,3.5712,3.5679,3.5574,3.5549,3.5519,3.5505,3.54,3.5379,3.5297,3.5273,3.5262,3.5295,3.5196,3.5213,3.5219,3.5224,3.5369,3.5386,3.5402,0,0,0,0,0,3.5857,3.5895,3.5848,3.5833,3.5727,3.5681,3.5666,3.5572,3.5522,3.5534,3.5459,3.5383,3.53,3.5273,3.5259,3.5292,3.521,3.5217,3.5223,3.5361,3.5383,3.5401,0,0,0,0,0,0,3.6011,3.5879,3.5825,3.5829,3.5768,3.5654,3.5667,3.5598,3.5548,3.5537,3.542,3.5397,3.5393,3.5339,3.5311,3.5317,3.5244,3.5249,3.5354,3.5373,3.539,3.5404,3.5193,0,0,0,0,0,3.6045,3.6021,3.5906,3.592,3.5892,3.5785,3.5761,3.5694,3.5625,3.5597,3.5521,3.5456,3.5414,3.539,3.5346,3.5358,3.5333,3.5373,3.539,3.5404,3.541,3.5413,3.543,3.5249,3.5249,3.5248,0,0,3.6116,3.6041,3.6032,3.5949,3.5893,3.5869,3.5764,3.5743,3.5724,3.5593,3.5573,3.5514,3.5433,3.5431,3.5426,3.5386,3.5454,3.5413,3.5425,3.5423,3.5421,3.5439,3.5454,3.5253,3.5252,3.5252,0,0,3.6233,3.6174,3.618,3.6126,3.6043,3.5971,3.5973,3.5869,3.5826,3.5803,3.5705,3.5678,3.561,3.5557,3.5521,3.5615,3.5543,3.5603,3.5691,3.5695,3.5709,3.5721,3.5756,3.577,3.5609,3.5609,3.5609,0,3.6332,3.6293,3.6191,3.6176,3.6142,3.6023,3.6027,3.5979,3.5886,3.5865,3.5821,3.5733,3.5669,3.5653,3.5676,3.565,3.5648,3.5617,3.5715,3.5727,3.5736,3.5768,3.5782,3.5617,3.5616,3.5615,3.5615,0,3.6419,3.6393,3.6407,3.6322,3.6288,3.6283,3.6179,3.6157,3.6091,3.6023,3.6001,3.592,3.5858,3.5848,3.5783,3.5822,3.58,3.5738,3.5662,3.5764,3.5792,3.5803,3.5629,3.5626,3.5623,3.5621,0,0,3.6632,3.6488,3.6496,3.6455,3.6354,3.6331,3.6319,3.6259,3.6243,3.6181,3.6168,3.6112,3.6054,3.6013,3.594,3.5943,3.6024,3.5879,3.5875,3.5911,3.6063,3.6113,3.6129,3.5974,3.5976,3.5977,3.607,0,3.6734,3.6708,3.6615,3.6616,3.6591,3.6476,3.6465,3.6401,3.6337,3.6304,3.6231,3.6195,3.6119,3.6094,3.6091,3.6015,3.6053,3.6006,3.5961,3.596,3.5989,3.6143,3.6196,3.6288,3.608,3.6082,3.6083,0,3.685,3.6798,3.6798,3.6697,3.6683,3.6676,3.6613,3.6583,3.6507,3.6459,3.6413,3.6332,3.6311,3.6238,3.6208,3.6178,3.6153,3.6112,3.6113,3.6108,3.6031,3.6145,3.6315,3.633,3.6099,3.6098,3.6097,0,3.7008,3.6937,3.6928,3.6896,3.6778,3.6775,3.6725,3.6646,3.6616,3.6559,3.6538,3.648,3.6448,3.6404,3.6308,3.6264,3.6288,3.6208,3.6249,3.6251,3.6262,3.6263,3.6434,3.6241,3.6241,3.6241,3.6241,0,3.7133,3.7139,3.6997,3.6993,3.6994,3.6884,3.6888,3.6826,3.6757,3.6736,3.6631,3.6614,3.6487,3.6455,3.6379,3.6366,3.6351,3.6312,3.6292,3.6323,3.6329,3.6308,3.63,3.6244,3.6244,3.6243,3.6242,0,3.7312,3.7217,3.72,3.7089,3.7061,3.7067,3.6971,3.6961,3.6888,3.6864,3.6852,3.6738,3.6695,3.6594,3.6522,3.6471,3.6478,3.644,3.6505,3.6493,3.6541,3.6539,3.6706,3.6723,3.6518,3.652,3.6522,0,3.74,3.7401,3.729,3.727,3.7225,3.7193,3.7162,3.7052,3.7024,3.6936,3.6936,3.6884,3.6838,3.6772,3.6683,3.6627,3.6589,3.6651,3.658,3.6611,3.6593,3.6595,3.6595,3.6668,3.6671,3.6673,3.6675,0,3.7566,3.7519,3.7479,3.7423,3.7389,3.7338,3.7282,3.7271,3.7147,3.712,3.7075,3.7039,3.6966,3.6916,3.6846,3.6792,3.6714,3.6698,3.6705,3.6738,3.6777,3.6759,3.6551,3.6695,3.6693,3.6692,3.6691,3.669,3.7703,3.7699,3.7621,3.7579,3.7526,3.7475,3.7461,3.7387,3.7348,3.7282,3.7218,3.718,3.7101,3.7,3.6951,3.6918,3.6878,3.6887,3.689,3.6895,3.691,3.678,3.6904,3.6903,3.6903,3.6902,3.6901,0,3.7866,3.781,3.7772,3.7698,3.7665,3.7594,3.7527,3.7505,3.7473,3.7406,3.7363,3.731,3.726,3.7166,3.7108,3.71,3.7062,3.7088,3.7089,3.7078,3.6947,3.6949,3.712,3.712,3.712,3.712,3.7119,3.7119,3.7947,3.7937,3.7881,3.7843,3.7785,3.7748,3.7716,3.7669,3.7616,3.7563,3.7522,3.7461,3.7383,3.7318,3.7269,3.7242,3.7226,3.7265,3.7227,3.7108,3.7087,3.7068,3.7068,3.7262,3.7262,3.7361,3.7362,3.7362]}]]